This is the latest recevied weather packets stored in our database for station/object IZ5MMH-1. If no packets are shown the sender has not sent any weather packets the latest 10 day(s).
| Time | Temp. | Humidity | Pressure | Rain* | Wind** | Luminosity | Snow |
|---|---|---|---|---|---|---|---|
| 1787827493 | 36.67° C | 39% | 1017 hPa | - | - | - | - |
| 1787826892 | 36.67° C | 38% | 1016.8 hPa | - | - | - | - |
| 1787826292 | 36.67° C | 38% | 1016.7 hPa | - | - | - | - |
| 1787825692 | 36.11° C | 38% | 1016.8 hPa | - | - | - | - |
| 1787825091 | 36.11° C | 39% | 1016.7 hPa | - | - | - | - |
| 1787824493 | 36.11° C | 39% | 1016.7 hPa | - | - | - | - |
| 1787823892 | 35.56° C | 39% | 1016.8 hPa | - | - | - | - |
| 1787823292 | 35° C | 40% | 1016.8 hPa | - | - | - | - |
| 1787822692 | 35° C | 40% | 1016.8 hPa | - | - | - | - |
| 1787822093 | 35° C | 40% | 1016.8 hPa | - | - | - | - |
| 1787821492 | 34.44° C | 41% | 1016.9 hPa | - | - | - | - |
| 1787820891 | 33.89° C | 41% | 1016.9 hPa | - | - | - | - |
| 1787820291 | 33.33° C | 41% | 1016.8 hPa | - | - | - | - |
| 1787819691 | 33.33° C | 40% | 1016.7 hPa | - | - | - | - |
| 1787819092 | 32.78° C | 41% | 1016.7 hPa | - | - | - | - |
| 1787818492 | 32.22° C | 42% | 1016.8 hPa | - | - | - | - |
| 1787817891 | 31.67° C | 43% | 1016.6 hPa | - | - | - | - |
| 1787817292 | 31.11° C | 43% | 1016.8 hPa | - | - | - | - |
| 1787816691 | 31.11° C | 43% | 1016.8 hPa | - | - | - | - |
| 1787816092 | 30.56° C | 45% | 1016.8 hPa | - | - | - | - |
| 1787815492 | 30.56° C | 47% | 1016.9 hPa | - | - | - | - |
| 1787814891 | 30.56° C | 44% | 1017.3 hPa | - | - | - | - |
| 1787814292 | 30.56° C | 45% | 1017.2 hPa | - | - | - | - |
| 1787813691 | 30° C | 46% | 1017.3 hPa | - | - | - | - |
| 1787813091 | 29.44° C | 53% | 1017.2 hPa | - | - | - | - |
* Rain since midnight (hover to see other rain measurements)
** Current wind speed in m/s (hover to see current wind gust speed)